Weather History for Windsor Locks, CT

Change the Weather History Date:

Tuesday, June 18, 2013

  Actual Average Record
Temperature  
Mean Temperature 69 °F 69 °F  
Max Temperature 81 °F 80 °F 95 °F (1957)
Min Temperature 57 °F 58 °F 40 °F (1958)
Degree Days  
Heating Degree Days 0 1  
Month to date heating degree days 33 35  
Since 1 June heating degree days 33 35  
Since 1 July heating degree days 5717 5993  
Cooling Degree Days 4 5  
Month to date cooling degree days 50 67  
Year to date cooling degree days 104 106  
Since 1 June cooling degree days 50 67  
Growing Degree Days 20 (Base 50)    
Moisture  
Dew Point 62 °F    
Average Humidity 78    
Maximum Humidity 97    
Minimum Humidity 58    
Precipitation  
Precipitation 0.39 in 0.14 in 1.39 in (2009)
Month to date precipitation 9.02 2.89  
Year to date precipitation 25.16 20.70  
Snow  
Snow 0.00 in 0.00 in 0.00 in (2002)
Month to date snowfall 0.0 0.0  
Since 1 June snowfall 0.0 0.0  
Since 1 July snowfall 56.9 40.5  
Snow Depth 0.00 in    
Sea Level Pressure  
Sea Level Pressure 29.90 in    
Wind  
Wind Speed 6 mph (North)    
Max Wind Speed 24 mph    
Max Gust Speed 31 mph    
Visibility 9 miles    
Events Fog , Rain , Thunderstorm    
T = Trace of Precipitation, MM = Missing Value Source: NWS Daily Summary

Daily Weather History Graph

Daily Weather History Graph

Search for Another Location

Airport:

Trip Planner

Search our weather history database for the weather conditions in past years. The results will help you decide how hot, cold, wet, or windy it might be!

Date:

Astronomy

Jun. 18, 2013 Rise Set
Actual Time 5:14 AM EDT 8:28 PM EDT
Civil Twilight 4:40 AM EDT 9:03 PM EDT
Nautical Twilight 3:56 AM EDT 9:47 PM EDT
Astronomical Twilight 3:02 AM EDT 10:41 PM EDT
Moon 3:06 PM EDT (6/18) 1:26 AM EDT (6/18)
Length of Visible Light 16h 22m
Length of Day
15h 13m
Waxing Gibbous, 70% of the Moon is Illuminated
Jun 18
Waxing Gibbous
Jun 23
Full
Jun 30
Last Quarter
Jul 8
New
Jul 15
First Quarter

Hourly Weather History & Observations

Time (EDT) Temp. Heat Index Dew Point Humidity Pressure Visibility Wind Dir Wind Speed Gust Speed Precip Events Conditions
12:51 AM 63.0 °F - 60.1 °F 90% 29.91 in 10.0 mi South 4.6 mph - N/A   Mostly Cloudy
1:51 AM 64.0 °F - 61.0 °F 90% 29.91 in 7.0 mi WNW 5.8 mph - 0.00 in Rain Light Rain
2:51 AM 64.0 °F - 61.0 °F 90% 29.89 in 10.0 mi East 4.6 mph - 0.05 in   Mostly Cloudy
3:51 AM 63.0 °F - 60.1 °F 90% 29.88 in 10.0 mi Calm Calm - N/A   Mostly Cloudy
4:51 AM 61.0 °F - 59.0 °F 93% 29.88 in 10.0 mi NW 3.5 mph - N/A Fog Patches of Fog
5:51 AM 62.1 °F - 60.1 °F 93% 29.89 in 10.0 mi Calm Calm - N/A Fog Patches of Fog
6:51 AM 63.0 °F - 61.0 °F 93% 29.91 in 10.0 mi North 4.6 mph - N/A   Mostly Cloudy
7:51 AM 66.0 °F - 62.1 °F 87% 29.92 in 10.0 mi North 4.6 mph - N/A   Mostly Cloudy
8:51 AM 68.0 °F - 62.1 °F 81% 29.93 in 10.0 mi North 4.6 mph - N/A   Mostly Cloudy
9:51 AM 71.1 °F - 64.0 °F 78% 29.92 in 10.0 mi Calm Calm - N/A   Mostly Cloudy
10:51 AM 73.9 °F - 64.0 °F 71% 29.91 in 10.0 mi NNE 5.8 mph - N/A   Mostly Cloudy
11:51 AM 75.9 °F - 63.0 °F 64% 29.89 in 10.0 mi Calm Calm - N/A   Mostly Cloudy
12:51 PM 78.1 °F - 64.0 °F 62% 29.87 in 10.0 mi Calm Calm - N/A   Mostly Cloudy
1:51 PM 80.1 °F 81.7 °F 64.0 °F 58% 29.84 in 10.0 mi Variable 5.8 mph - N/A   Overcast
2:25 PM 71.6 °F - 60.8 °F 69% 29.86 in 10.0 mi North 18.4 mph 27.6 mph 0.00 in Rain , Thunderstorm Light Thunderstorms and Rain
2:46 PM 66.2 °F - 62.6 °F 88% 29.87 in 2.0 mi North 24.2 mph 31.1 mph 0.06 in Rain , Thunderstorm Light Thunderstorms and Rain
2:51 PM 64.9 °F - 62.1 °F 90% 29.87 in 2.5 mi North 17.3 mph 31.1 mph 0.16 in Rain , Thunderstorm Thunderstorms and Rain
2:59 PM 64.4 °F - 62.6 °F 94% 29.88 in 4.0 mi North 11.5 mph 24.2 mph 0.02 in Rain , Thunderstorm Light Thunderstorms and Rain
3:32 PM 64.4 °F - 62.6 °F 94% 29.87 in 10.0 mi NNE 12.7 mph - 0.05 in   Overcast
3:46 PM 66.2 °F - 64.4 °F 94% 29.87 in 10.0 mi NNE 10.4 mph - 0.05 in   Overcast
3:51 PM 66.0 °F - 63.0 °F 90% 29.88 in 10.0 mi NNE 12.7 mph - 0.05 in   Overcast
4:00 PM 66.2 °F - 62.6 °F 88% 29.88 in 10.0 mi NNE 12.7 mph - N/A   Overcast
4:30 PM 66.2 °F - 62.6 °F 88% 29.89 in 10.0 mi North 9.2 mph - N/A   Overcast
4:51 PM 66.0 °F - 63.0 °F 90% 29.90 in 10.0 mi North 6.9 mph - N/A   Overcast
5:45 PM 66.2 °F - 64.4 °F 94% 29.89 in 10.0 mi North 4.6 mph - 0.00 in Rain Light Rain
5:51 PM 66.0 °F - 64.0 °F 93% 29.90 in 8.0 mi North 4.6 mph - 0.00 in Rain Light Rain
5:55 PM 66.2 °F - 62.6 °F 88% 29.90 in 8.0 mi North 6.9 mph - 0.01 in Rain Light Rain
6:24 PM 64.4 °F - 62.6 °F 94% 29.89 in 6.0 mi North 10.4 mph - 0.04 in Rain Light Rain
6:39 PM 64.4 °F - 60.8 °F 88% 29.89 in 10.0 mi NE 10.4 mph - 0.05 in Rain Light Rain
6:51 PM 64.0 °F - 61.0 °F 90% 29.90 in 10.0 mi NE 8.1 mph - 0.05 in   Overcast
7:22 PM 64.4 °F - 60.8 °F 88% 29.91 in 10.0 mi NNE 5.8 mph - N/A   Overcast
7:51 PM 63.0 °F - 60.1 °F 90% 29.91 in 10.0 mi North 6.9 mph - 0.00 in Rain Light Rain
8:48 PM 62.6 °F - 60.8 °F 94% 29.90 in 10.0 mi NNE 8.1 mph - 0.01 in Rain Light Rain
8:51 PM 62.1 °F - 59.0 °F 90% 29.90 in 10.0 mi NE 8.1 mph - 0.01 in Rain Light Rain
9:15 PM 62.6 °F - 59.0 °F 88% 29.91 in 10.0 mi North 4.6 mph - N/A   Overcast
9:40 PM 62.6 °F - 60.8 °F 94% 29.92 in 10.0 mi North 6.9 mph - 0.00 in Rain Light Rain
9:51 PM 62.1 °F - 59.0 °F 90% 29.92 in 10.0 mi North 8.1 mph - 0.00 in Rain Light Rain
10:11 PM 60.8 °F - 59.0 °F 94% 29.93 in 10.0 mi North 6.9 mph - 0.00 in   Overcast
10:51 PM 61.0 °F - 59.0 °F 93% 29.92 in 10.0 mi North 5.8 mph - 0.00 in   Overcast
11:51 PM 57.9 °F - 55.0 °F 90% 29.94 in 8.0 mi North 10.4 mph - 0.00 in Rain Light Rain